Voltar ao catálogo

LARES

AtivoCiênciaLEO
NORAD 38077·PAYLOAD·🇮🇹 Italy

Lançado Feb 13, 2012 de Guiana Space Centre

Loading…

Próximas Passagens (próximas 24 horas)

TLE

AtualizadoSource: CelesTrak SupGP

Época: Sep 14, 2026, 00:00 UTC

1 38077C 12006A   26257.00000000 -.00000007  00000+0 -42323-4 0  2579
2 38077  69.4903 140.5496 0010861 308.4873  51.1801 12.54932454    12

Acompanhe LARES em tempo real com AllMySat

Download on the App Store